Tracking 20241 objects as of 26-Jan-2020
HD Live streaming from Space Station
objects crossing your sky now

ATLAS 2AS CENTAUR R/B

Track ATLAS 2AS CENTAUR R/B now!
10-day predictions


NORAD ID: 26072
Int'l Code: 2000-007B
Perigee: 259.8 km
Apogee: 9,248.0 km
Inclination: 18.1 °
Period: 194.6 minutes
Semi major axis: 11124 km
RCS: 16.571 m2 (large)
Launch date: February 3, 2000
Source: United States (US)
Launch site: AIR FORCE EASTERN TEST RANGE (AFETR)

Note: This is a ROCKET BODY
aabbcc
Your satellite tracking list
Your tracking list is empty




NASA's NSSDC Master Catalog

Two Line Element Set (TLE):
1 26072U 00007B   20026.33088293 +.00015090 +00000-0 +62817-3 0  9992
2 26072 018.1138 045.1300 4039703 334.0013 010.3109 07.39874768167416
Source of the keplerian elements: AFSPC